Regional Weather Roundup
Issued by NWS

Home | Current Version | Previous Version | Text Only | Print | Product List | Glossary On
Versions: 1 2 3 4 5 6 7 8 9 10 11 12 13 14 15 16 17 18 19 20 21 22 23 24 25 26 27 28 29 30 31 32 33 34 35 36 37 38 39 40 41 42 43 44 45 46 47 48 49 50
000
ASUS44 KFWD 302003
RWRTX
NORTH TEXAS HOURLY WEATHER ROUNDUP
NATIONAL WEATHER SERVICE FORT WORTH TX
200 PM CST FRI JAN 30 2015

NOTE: "FAIR" INDICATES FEW OR NO CLOUDS BELOW 12,000 FEET WITH NO
SIGNIFICANT WEATHER AND/OR OBSTRUCTIONS TO VISIBILITY.

TXZ118-119-302100-
DALLAS/FORT WORTH METROPLEX

CITY           SKY/WX    TMP DP  RH WIND       PRES   REMARKS
DFW AIRPORT    PTSUNNY   55  30  38 NE8       30.39F
DALLAS LOVE    PTSUNNY   56  29  35 E7        30.39F
FTW MEACHAM    SUNNY     56  32  40 MISG      30.38F
DAL-EXECUTIVE  MOSUNNY   57  30  35 E3        30.38F
FTW-ALLIANCE   PTSUNNY   54  30  40 VRB5      30.39F
FTW-SPINKS     SUNNY     55  30  38 E6        30.40F
ARLINGTON      SUNNY     56  29  35 NE7       30.38F
GRAND PRAIRIE  SUNNY     54  34  47 E7        30.41F
MESQUITE       SUNNY     55  30  38 CALM      30.40F
LANCASTER      SUNNY     53  31  41 NE9       30.40F
$$

TXZ091>094-102>105-117-120-121-131>134-302100-
NORTH CENTRAL TEXAS

CITY           SKY/WX    TMP DP  RH WIND       PRES   REMARKS
SHRMAN/DENISON PTSUNNY   53  34  47 NE6       30.41F
BRIDGEPORT     SUNNY     56  34  44 E5        30.42F
DECATUR        MOSUNNY   53  30  40 E5        30.39F
DENTON         PTSUNNY   53  29  39 E6        30.39F
MCKINNEY       PTSUNNY   55  32  41 NE6       30.39F
GREENVILLE     SUNNY     55  28  35 NE7       30.39F
ROCKWALL       MOSUNNY   55  32  41 NE5       30.39F
TERRELL        MOSUNNY   55  32  41 VRB3      30.40F
WAXAHACHIE     SUNNY     54  35  47 NE7       30.40F
CLEBURNE       MOSUNNY   54  30  40 E6        30.39F
GRANBURY       PTSUNNY   54  32  43 E5        30.39F
$$

TXZ083>090-098>101-113>116-127>130-139>142-154-155-302100-
WESTERN NORTH TEXAS

CITY           SKY/WX    TMP DP  RH WIND       PRES   REMARKS
WICHITA FALLS  PTSUNNY   49  29  46 NE5       30.39F
WF-KICKAPOO    MOSUNNY   44  22  42 E3        30.40F
VERNON         CLOUDY    47  23  38 CALM      30.40F
ABILENE        CLOUDY    49  30  48 E7        30.35F
ABILENE-DYESS  CLOUDY    49  31  50 E7        30.34F
MINERAL WELLS  MOSUNNY   54  31  41 CALM      30.36F
COMANCHE       CLOUDY    48  33  55 E8        30.37F
BROWNWOOD      CLOUDY    48  32  53 E7        30.36F
COLEMAN        CLOUDY    49  33  54 E6        30.35F
BRADY          MOSUNNY   52  30  43 E9        30.31F
$$

TXZ143>147-156>162-174-175-302100-
CENTRAL TEXAS

CITY           SKY/WX    TMP DP  RH WIND       PRES   REMARKS
WACO           PTSUNNY   53  34  48 NE5       30.37F
WACO-MCGREGOR  PTSUNNY   52  32  46 E7        30.39F
CORSICANA      SUNNY     56  30  37 E10       30.39F
MEXIA          MOSUNNY   56  32  40 NE6       30.37F
HEARNE         MOSUNNY   58  35  43 N5        30.37F
TEMPLE         PTSUNNY   54  32  43 E8        30.36F
KILLEEN        CLOUDY    49  34  56 NE7       30.36F
KILLEEN-SKYLRK CLOUDY    52  32  46 NE7       30.34F
FORT HOOD      CLOUDY    50  34  53 E5        30.35F
HAMILTON       CLOUDY    50  32  50 NE5       30.38F
LAMPASAS       CLOUDY    50  35  55 NE5       30.35F
$$

TXZ095>097-106>112-122>126-135>138-148>153-164>167-302100-
EAST TEXAS

CITY           SKY/WX    TMP DP  RH WIND       PRES   REMARKS
PARIS          SUNNY     54  30  40 NE3       30.41F
MOUNT PLEASANT FAIR      55  28  36 CALM      30.42F
GILMER         SUNNY     53  28  37 N6        30.40F
MINEOLA        SUNNY     55  23  28 NE6       30.40F
TYLER          MOSUNNY   57  26  30 E9        30.38F
LONGVIEW       SUNNY     57  28  33 E10       30.38F
MARSHALL       SUNNY     56  31  38 CALM      30.42F
PALESTINE      SUNNY     58  31  36 NE5       30.39F
JACKSONVILLE   MOSUNNY   56  30  37 MISG      30.39F
HENDERSON      MOSUNNY   56  29  35 E6        30.39F
NACOGDOCHES    MOSUNNY   57  30  35 E7        30.38F
LUFKIN         MOSUNNY   59  31  34 VRB7      30.37F
$$

SUPPLEMENTAL OBSERVATIONS (CENTRAL)

CITY           SKY/WX    TMP DP  RH WIND       PRES   REMARKS
$$

SUPPLEMENTAL OBSERVATIONS (WEST)

CITY           SKY/WX    TMP DP  RH WIND       PRES   REMARKS
$$

SUPPLEMENTAL OBSERVATIONS (EAST)

CITY           SKY/WX    TMP DP  RH WIND       PRES   REMARKS
$$

SUPPLEMENTAL OBSERVATIONS ARE A COLLECTION OF AUTOMATED INSTRUMENTS
THAT ARE MAINTAINED BY A VARIETY OF FEDERAL AND STATE AGENCIES.
CERTAIN ELEMENTS...SUCH AS HUMIDITY VALUES AND SUSTAINED WIND
SPEEDS...MAY BE APPROXIMATED.




USA.gov is the U.S. government's official web portal to all federal, state and local government web resources and services.